CW1020 Weather Reports


Display with metric or nautical units.
time (UTC)temp
F
wind
direction
speed
MPH
gust
MPH
rain 1hr
in
rain 24hr
in
rain mn
in
humidity
%
barometer
mb
20260503024503 70 177 8.0 10.0 0.00 0.00 0.00 24 1012.9
20260503024003 70 177 8.0 17.0 0.00 0.00 0.00 24 1012.9
20260503023505 70 178 7.0 14.0 0.00 0.00 0.00 23 1012.8
20260503023004 71 182 7.0 11.0 0.00 0.00 0.00 23 1012.9
20260503022503 71 167 8.0 17.0 0.00 0.00 0.00 23 1012.8
20260503022004 72 179 6.0 13.0 0.00 0.00 0.00 23 1012.9
20260503021504 72 186 5.0 14.0 0.00 0.00 0.00 23 1013.0
20260503021003 72 186 6.0 8.0 0.00 0.00 0.00 23 1013.1
20260503020504 73 170 8.0 8.0 0.00 0.00 0.00 22 1013.0
20260503020004 73 153 8.0 15.0 0.00 0.00 0.00 22 1013.1
20260503015503 73 159 6.0 13.0 0.00 0.00 0.00 22 1013.3
20260503015003 74 173 6.0 14.0 0.00 0.00 0.00 22 1013.2
20260503014003 74 160 7.0 12.0 0.00 0.00 0.00 22 1013.2
20260503013004 74 150 6.0 17.0 0.00 0.00 0.00 23 1013.3
20260503012003 74 193 7.0 12.0 0.00 0.00 0.00 24 1013.3
20260503011503 74 168 7.0 11.0 0.00 0.00 0.00 24 1013.2
20260503011004 75 189 6.0 15.0 0.00 0.00 0.00 25 1013.3
20260503010504 75 178 6.0 10.0 0.00 0.00 0.00 24 1013.2
20260503005504 75 173 8.0 10.0 0.00 0.00 0.00 24 1013.3
20260503005005 76 189 8.0 13.0 0.00 0.00 0.00 24 1013.3
20260503004003 76 155 9.0 14.0 0.00 0.00 0.00 24 1013.4
20260503002504 76 171 8.0 13.0 0.00 0.00 0.00 23 1013.2
20260503002004 76 147 9.0 16.0 0.00 0.00 0.00 24 1013.2
20260503001504 76 144 10.0 12.0 0.00 0.00 0.00 23 1013.3
20260503001004 76 153 8.0 19.0 0.00 0.00 0.00 24 1013.4
20260503000504 76 125 8.0 14.0 0.00 0.00 0.00 23 1013.3
20260502235003 77 153 10.0 13.0 0.00 0.00 0.00 24 1013.4
20260502234504 77 158 11.0 14.0 0.00 0.00 0.00 24 1013.4
20260502233504 77 148 10.0 17.0 0.00 0.00 0.00 24 1013.3
20260502233003 77 139 9.0 16.0 0.00 0.00 0.00 24 1013.3
20260502232003 77 134 8.0 11.0 0.00 0.00 0.00 23 1013.4
20260502231504 77 154 9.0 12.0 0.00 0.00 0.00 24 1013.5
20260502230504 77 168 5.0 21.0 0.00 0.00 0.00 23 1013.5
20260502230004 84 158 6.0 10.0 0.00 0.00 0.00 19 1013.4
20260502225003 82 182 7.0 24.0 0.00 0.00 0.00 20 1013.5
20260502224505 81 185 4.0 17.0 0.00 0.00 0.00 21 1013.8
20260502224004 80 145 4.0 11.0 0.00 0.00 0.00 20 1013.9
20260502223503 79 225 5.0 7.0 0.00 0.00 0.00 20 1014.1
20260502223003 79 96 6.0 9.0 0.00 0.00 0.00 19 1014.2
20260502222504 79 73 8.0 13.0 0.00 0.00 0.00 18 1014.2
20260502222004 80 96 9.0 14.0 0.00 0.00 0.00 18 1014.4
20260502221504 80 104 7.0 15.0 0.00 0.00 0.00 17 1014.4
20260502221003 81 111 6.0 11.0 0.00 0.00 0.00 18 1014.5
20260502220503 81 126 10.0 7.0 0.00 0.00 0.00 18 1014.6
20260502220003 81 109 10.0 17.0 0.00 0.00 0.00 18 1014.6
20260502215503 80 113 8.0 15.0 0.00 0.00 0.00 18 1014.8
20260502215003 80 99 9.0 15.0 0.00 0.00 0.00 18 1014.9
20260502214504 80 81 11.0 14.0 0.00 0.00 0.00 18 1014.9
20260502213504 80 114 11.0 21.0 0.00 0.00 0.00 18 1015.1
20260502213003 80 87 12.0 14.0 0.00 0.00 0.00 18 1015.1
20260502212505 80 106 9.0 21.0 0.00 0.00 0.00 18 1015.1
20260502212004 80 90 9.0 15.0 0.00 0.00 0.00 18 1015.3
20260502211505 80 96 11.0 16.0 0.00 0.00 0.00 18 1015.4
20260502211003 80 114 11.0 25.0 0.00 0.00 0.00 19 1015.5
20260502210503 79 101 12.0 17.0 0.00 0.00 0.00 18 1015.5
20260502210002 79 106 11.0 24.0 0.00 0.00 0.00 19 1015.7
20260502205503 79 95 10.0 20.0 0.00 0.00 0.00 19 1015.5
20260502205002 79 90 11.0 21.0 0.00 0.00 0.00 19 1015.5
20260502204503 79 101 11.0 27.0 0.00 0.00 0.00 20 1015.5
20260502204002 78 85 11.0 18.0 0.00 0.00 0.00 19 1015.5
20260502203502 79 81 9.0 19.0 0.00 0.00 0.00 19 1015.7
20260502203002 79 98 9.0 16.0 0.00 0.00 0.00 20 1015.7
20260502202503 78 106 12.0 12.0 0.00 0.00 0.00 20 1015.8
20260502202002 79 94 11.0 18.0 0.00 0.00 0.00 20 1015.8
20260502201503 80 74 9.0 17.0 0.00 0.00 0.00 19 1015.9
20260502200502 79 104 9.0 20.0 0.00 0.00 0.00 19 1016.0
20260502200002 79 106 9.0 13.0 0.00 0.00 0.00 20 1016.1
20260502195503 79 99 8.0 15.0 0.00 0.00 0.00 19 1016.2
20260502195003 78 110 10.0 12.0 0.00 0.00 0.00 20 1016.3
20260502194502 78 107 11.0 16.0 0.00 0.00 0.00 20 1016.3
20260502193504 77 96 12.0 19.0 0.00 0.00 0.00 20 1016.5
20260502192503 78 115 12.0 15.0 0.00 0.00 0.00 20 1016.6
20260502192002 77 99 12.0 19.0 0.00 0.00 0.00 21 1016.6
20260502191502 77 97 11.0 19.0 0.00 0.00 0.00 21 1016.7
20260502191003 78 86 10.0 17.0 0.00 0.00 0.00 20 1016.8
20260502190502 77 109 11.0 17.0 0.00 0.00 0.00 21 1016.7
20260502190002 77 87 11.0 18.0 0.00 0.00 0.00 20 1016.8
20260502185503 78 100 10.0 18.0 0.00 0.00 0.00 20 1017.0
20260502185004 77 106 11.0 17.0 0.00 0.00 0.00 21 1016.9
20260502184003 77 97 11.0 19.0 0.00 0.00 0.00 21 1016.9
20260502183502 77 87 10.0 15.0 0.00 0.00 0.00 22 1016.9
20260502183003 77 76 10.0 18.0 0.00 0.00 0.00 21 1017.1
20260502182502 77 108 11.0 15.0 0.00 0.00 0.00 22 1017.0
20260502182002 76 117 11.0 20.0 0.00 0.00 0.00 22 1016.9
20260502181503 76 83 12.0 17.0 0.00 0.00 0.00 22 1017.1
20260502181002 76 104 13.0 21.0 0.00 0.00 0.00 22 1017.0
20260502180503 76 108 12.0 19.0 0.00 0.00 0.00 22 1017.0
20260502170502 74 107 10.0 16.0 0.00 0.00 0.00 27 1017.4
20260502164002 72 86 10.0 17.0 0.00 0.00 0.00 30 1017.0
20260502163503 72 94 10.0 18.0 0.00 0.00 0.00 31 1017.0
20260502163002 72 86 11.0 14.0 0.00 0.00 0.00 32 1017.0
20260502162502 72 90 10.0 16.0 0.00 0.00 0.00 32 1017.0
20260502162003 72 88 10.0 14.0 0.00 0.00 0.00 33 1017.1
20260502161503 72 89 9.0 16.0 0.00 0.00 0.00 34 1017.1
20260502160504 71 93 10.0 14.0 0.00 0.00 0.00 38 1017.1
20260502152002 64 62 3.0 5.0 0.00 0.00 0.00 52 1017.3
20260502151502 62 74 3.0 4.0 0.00 0.00 0.00 55 1017.4
20260502150502 59 78 1.0 6.0 0.00 0.00 0.00 60 1017.2
20260502123503 47 0 0.0 0.0 0.00 0.00 0.00 77 1016.2
20260502122503 47 143 1.0 4.0 0.00 0.00 0.00 77 1016.2
20260502122004 47 147 0.0 3.0 0.00 0.00 0.00 77 1016.1
20260502121503 47 0 0.0 0.0 0.00 0.00 0.00 78 1016.1
20260502121002 47 0 0.0 0.0 0.00 0.00 0.00 78 1016.1
20260502120503 47 0 0.0 0.0 0.00 0.00 0.00 78 1016.1
20260502115503 47 0 0.0 0.0 0.00 0.00 0.00 77 1016.2
20260502115003 47 0 0.0 0.0 0.00 0.00 0.00 77 1016.1
20260502114503 47 0 0.0 0.0 0.00 0.00 0.00 77 1016.1
20260502114002 47 0 0.0 0.0 0.00 0.00 0.00 77 1016.1
20260502113503 47 0 1.0 0.0 0.00 0.00 0.00 77 1016.3
20260502112502 48 137 1.0 1.0 0.00 0.00 0.00 77 1016.1
20260502112003 48 135 1.0 2.0 0.00 0.00 0.00 77 1016.2
20260502111503 48 137 1.0 2.0 0.00 0.00 0.00 77 1016.2
20260502110003 48 154 1.0 1.0 0.00 0.00 0.00 77 1016.4
20260502105003 48 137 0.0 3.0 0.00 0.00 0.00 77 1016.4
20260502104502 48 0 1.0 0.0 0.00 0.00 0.00 77 1016.4
20260502104003 48 135 1.0 7.0 0.00 0.00 0.00 77 1016.5
20260502103503 48 132 0.0 3.0 0.00 0.00 0.00 77 1016.4
20260502103003 48 149 0.0 2.0 0.00 0.00 0.00 77 1016.3
20260502102502 49 155 0.0 2.0 0.00 0.00 0.00 77 1016.3
20260502102002 49 150 0.0 4.0 0.00 0.00 0.00 77 1016.4
20260502101503 49 135 0.0 2.0 0.00 0.00 0.00 76 1016.4
20260502101003 49 0 0.0 0.0 0.00 0.00 0.00 75 1016.4
20260502100502 49 0 0.0 0.0 0.00 0.00 0.00 76 1016.4
20260502091003 51 119 1.0 9.0 0.00 0.00 0.00 73 1016.6
20260502070503 55 0 0.0 0.0 0.00 0.00 0.00 71 1017.1
20260502070006 55 0 0.0 0.0 0.00 0.00 0.00 71 1017.1
20260502065503 55 0 0.0 0.0 0.00 0.00 0.00 71 1017.2
20260502065003 55 0 0.0 0.0 0.00 0.00 0.00 70 1017.2
20260502064505 56 0 0.0 0.0 0.00 0.00 0.00 70 1017.2
20260502063002 56 0 0.0 0.0 0.00 0.00 0.00 69 1017.1
20260502062503 56 172 0.0 2.0 0.00 0.00 0.00 69 1017.2
20260502062003 56 0 0.0 0.0 0.00 0.00 0.00 68 1017.2
20260502061503 56 0 0.0 0.0 0.00 0.00 0.00 69 1017.2
20260502061003 57 0 0.0 0.0 0.00 0.00 0.00 68 1017.2
20260502060503 57 0 0.0 0.0 0.00 0.00 0.00 67 1017.1
20260502060003 58 0 0.0 0.0 0.00 0.00 0.00 66 1017.1
20260502055004 58 0 1.0 0.0 0.00 0.00 0.00 65 1017.2
20260502054504 58 190 1.0 2.0 0.00 0.00 0.00 65 1017.1
20260502054003 59 225 1.0 1.0 0.00 0.00 0.00 64 1017.1
20260502053503 59 205 1.0 2.0 0.00 0.00 0.00 64 1017.1
20260502052004 60 0 0.0 0.0 0.00 0.00 0.00 61 1017.3
20260502051003 61 0 0.0 0.0 0.00 0.00 0.00 60 1017.1
20260502050503 61 172 0.0 2.0 0.00 0.00 0.00 59 1017.1
20260502050003 61 173 1.0 2.0 0.00 0.00 0.00 59 1017.1
20260502045503 62 0 1.0 0.0 0.00 0.00 0.00 59 1017.1
20260502044504 62 160 3.0 2.0 0.00 0.00 0.00 58 1017.1
20260502044003 62 157 3.0 6.0 0.00 0.00 0.00 57 1017.0
20260502043503 63 156 2.0 6.0 0.00 0.00 0.00 57 1016.9
20260502043003 63 156 1.0 4.0 0.00 0.00 0.00 56 1016.9
20260502042503 64 158 1.0 1.0 0.00 0.00 0.00 55 1016.9
20260502041503 64 152 0.0 2.0 0.00 0.00 0.00 54 1016.8
20260502041004 65 0 0.0 0.0 0.00 0.00 0.00 53 1016.7
20260502040503 65 0 1.0 0.0 0.00 0.00 0.00 53 1016.6
20260502040004 65 149 1.0 3.0 0.00 0.00 0.00 53 1016.5
20260502035503 66 224 0.0 4.0 0.00 0.00 0.00 52 1016.5
20260502035003 66 0 0.0 0.0 0.00 0.00 0.00 52 1016.4
20260502034003 66 293 1.0 2.0 0.00 0.00 0.00 50 1016.2
20260502033003 66 257 6.0 5.0 0.00 0.00 0.00 51 1016.1
20260502032504 66 252 5.0 11.0 0.00 0.00 0.00 51 1015.9
20260502032003 66 253 4.0 5.0 0.00 0.00 0.00 51 1016.0
20260502031503 66 260 4.0 8.0 0.00 0.00 0.00 50 1016.0
20260502031003 67 267 4.0 6.0 0.00 0.00 0.00 50 1015.9
20260502030503 67 249 6.0 7.0 0.00 0.00 0.00 50 1015.9
20260502030004 67 254 7.0 8.0 0.00 0.00 0.00 49 1015.8
20260502025003 68 262 6.0 7.0 0.00 0.00 0.00 48 1015.7